OV1-5 DEB, 5361

Orbit data source: Space-Track

OV1-5 DEB, 5361 is space debris in LEO originally from a launch on Wed, 30 Mar 1966 UTC launched from the Air Force Western Test Range (AFWTR). Debris objects in space refer to the collection of defunct objects orbiting the Earth. Examples of debris include non-operational satellites, rocket bodies, and fragments generated from explosions, collisions, or faulty payload assembly.

Loading next visibility...
OV1-5 DEB details
Identifier
5361, 1966-025F
Orbit
LEO
Last TLE update1 day ago
Origin
Flag of USAFSC (US)
ManufacturerUnknown
MissionSpacecraft
Bus & MotorUnknown
MassUnknown
Launch date (UTC)
1966-03-30 (59 years ago)
Launch vehicleUnknown
Launch site
Air Force Western Test Range (AFWTR)
Object type
Payload
Rocket body
Debris
Shape & HBRUnknown
Radar Cross SectionSmall (<0.1 m²)

Expand to show TLE details & history

TLE from 1 day ago
0 OV1-5 DEB
1 05361U 66025F   25046.40930981  .00016102  00000-0  43690-2 0  9999
2 05361 144.6138 122.1048 0025202 295.6380  64.1716 14.45508854298082
Epoch: 2025-02-15T09:49Z
Definitive object data (Epoch: 2025-02-15T09:49:24.367Z)
Latitude-0.00002°
Longitude-170.90384°
Altitude731.561 km
Speed7.495 km/s
True Right ascension08h 08m 25s
True Declination0° 00' 00"
Sunlit
Object was in full shadow at TLE epoch
Visualization TLE readout
Latitude18.3261°
Longitude167.61996°
Altitude738.123 km
Speed7.49 km/s
Apparent Right ascension05h 17m 04s
Apparent Declination-9° 56' 42"
Sunlit
Object is in full shadow
Visualization observer readout
Local Sidereal Time15:16:26
Azimuth309.916° NW
Elevation-49.819°
Doppler factor1
Orbital elements
Apogee altitude761.383 km
Perigee altitude725.487 km
Semi-major axis7,121.572 km
Eccentricity0.0025202
Inclination144.6138°
RAAN122.1048°
Arg. of periapsis295.638°
True anomaly64.4319°
Mean anomaly64.1716°
Eccentric anomaly64.30171°
Mean motion3.61143 °/min
BSTAR0.004369
Orbital period99.68 mins
Loading maneuver chart data...
Loading historical data...
Loading historical data...
Loading historical data...
Loading historical data...
Loading historical data...
Loading historical data...
Loading historical data...

OV1-5 DEB Visibility forecast

Observer location: undefined°, undefined

Span
Click to sort rows by Start time (UTC) header in descending order
Start Az.
Max El. time (UTC)
Max El. Az.
Max El.
End time (UTC)
End Az.
7 mins2025-02-16 21:07:54.017Z104.892° ESE2025-02-16 21:11:54.017Z165.651° S23.359°2025-02-16 21:14:54.017Z209.736° SW
7 mins2025-02-16 22:42:54.017Z104.061° ESE2025-02-16 22:45:54.017Z160.168° S35.514°2025-02-16 22:49:54.017Z240.079° WSW
7 mins2025-02-17 00:17:54.017Z116.59° SE2025-02-17 00:20:54.017Z194.84° SSW37.919°2025-02-17 00:24:54.017Z258.51° W
6 mins2025-02-17 01:52:54.017Z147.177° SSE2025-02-17 01:54:54.017Z187.677° SSW29.679°2025-02-17 01:58:54.017Z257.966° W
|